(156292) = 2001 WA57

Discovered at Socorro on 2001-11-19 by LINEAR.

Orbit

Orbit type: Main Belt

Note: WebGL enabled browser required.

epoch2024-03-31.0
epoch JD2460400.5
perihelion date2023-02-07.52811
perihelion JD2459983.02811
argument of perihelion (°)179.52232
ascending node (°)250.39047
inclination (°)1.08014
eccentricity0.1960695
perihelion distance (AU)2.0995334
Tisserand w.r.t. Jupiter3.4
ΔV w.r.t. Earth (km/sec)9.1
semimajor axis (AU)2.6115856
mean anomaly (°)97.49328
mean daily motion (°/day)0.23353260
aphelion distance (AU)3.124
period (years)4.22
P-vector [x]0.34344859
P-vector [y]0.86161046
P-vector [z]0.37372515
Q-vector [x]-0.93900359
Q-vector [y]0.32255265
Q-vector [z]0.11929815
absolute magnitude17.01
phase slope0.15
uncertainty0
referenceMPEC 2024-C181
observations used577
oppositions14
arc length (days)8180
first opposition used2001
last opposition used2024
residual rms (arc-secs)0.74
perturbers coarse indicatorM-v
perturbers precise indicator003Ek
first observation date used2001-09-22.0
last observation date used2024-02-14.0
computer nameMPCLINUX
JD of orbit computation2456581.542855
perihelion JD uncertainty (days)1.6296E-04
argument of perihelion uncertainty (°)3.4739E-04
ascending node uncertainty (°)3.4584E-04
inclination uncertainty (°)4.3027E-06
eccentricity uncertainty 4.0099E-08
perihelion distance uncertainty (AU)1.0902E-07
Minimum Orbit Intersection Distances (in AU)
for orbit epoch: 2460400.5, reference: E2024-GB3
Mercury1.79166
Venus1.37853
Earth1.11425
Mars0.55174
Jupiter2.16919
Saturn6.81897
Uranus15.6797
Neptune27.3522

Observations

591 total observations over interval: 2001 09 22.41383 – 2024 02 14.591058
These data are available for download (format description).

Date (UT) J2000 RA J2000 Dec Magn Location Ref
2001 09 22.41383 03 30 08.39 +20 02 33.0 21.7 V 691 – Steward Observatory, Kitt Peak-Spacewatch MPS 49658
2001 09 22.43703 03 30 08.87 +20 02 35.1 22.1 V 691 – Steward Observatory, Kitt Peak-Spacewatch MPS 49658
2001 09 22.45993 03 30 09.31 +20 02 36.5 21.7 V 691 – Steward Observatory, Kitt Peak-Spacewatch MPS 49658
2001 10 21.34938 03 27 17.21 +19 46 58.6 20.0   704 – Lincoln Laboratory ETS, New Mexico MPS 49658
2001 10 21.36571 03 27 16.60 +19 46 56.3 20.1   704 – Lincoln Laboratory ETS, New Mexico MPS 49658
2001 10 21.38205 03 27 16.00 +19 46 54.7 20.5   704 – Lincoln Laboratory ETS, New Mexico MPS 49658
2001 11 09.29447 03 12 37.81 +18 42 02.6 19.7   704 – Lincoln Laboratory ETS, New Mexico MPS 49658
2001 11 09.30903 03 12 36.96 +18 41 59.1 19.5   704 – Lincoln Laboratory ETS, New Mexico MPS 49658
2001 11 09.32349 03 12 36.07 +18 41 55.1 19.8   704 – Lincoln Laboratory ETS, New Mexico MPS 49658
2001 11 09.33797 03 12 35.23 +18 41 51.6 19.4   704 – Lincoln Laboratory ETS, New Mexico MPS 49658
2001 11 09.35245 03 12 34.43 +18 41 48.1 19.5   704 – Lincoln Laboratory ETS, New Mexico MPS 49658
2001 11 19.22355 03 03 36.90 +17 58 30.2 18.5   704 – Lincoln Laboratory ETS, New Mexico MPS 49658
2001 11 19.23826 03 03 36.17 +17 58 26.4 19.3   704 – Lincoln Laboratory ETS, New Mexico MPS 49658
2001 11 19.25313 03 03 35.32 +17 58 20.9 19.9   704 – Lincoln Laboratory ETS, New Mexico MPS 49658
2001 11 19.26784 03 03 34.44 +17 58 18.5 18.9   704 – Lincoln Laboratory ETS, New Mexico MPS 49658
2001 11 19.28255 03 03 33.63 +17 58 14.5 18.6   704 – Lincoln Laboratory ETS, New Mexico MPS 49658
2001 11 19.48109 03 03 22.95 +17 57 22.9 20.7   608 – Haleakala-AMOS MPS 49658
2001 11 19.49215 03 03 22.32 +17 57 19.5 20.5   608 – Haleakala-AMOS MPS 49658
2001 11 19.50320 03 03 21.73 +17 57 16.8 20.4   608 – Haleakala-AMOS MPS 49658
2001 11 21.23969 03 01 51.80 +17 49 37.9 20.1   704 – Lincoln Laboratory ETS, New Mexico MPS 49658
2001 11 21.25435 03 01 51.15 +17 49 35.6 19.1   704 – Lincoln Laboratory ETS, New Mexico MPS 49658
2001 11 21.26902 03 01 50.34 +17 49 32.2 18.9   704 – Lincoln Laboratory ETS, New Mexico MPS 49658
2001 11 21.28369 03 01 49.58 +17 49 28.6 19.2   704 – Lincoln Laboratory ETS, New Mexico MPS 49658
2001 12 08.12241 02 50 28.37 +16 46 40.0 19.3 R 699 – Lowell Observatory-LONEOS MPS 49658
2001 12 08.14824 02 50 27.54 +16 46 36.7   699 – Lowell Observatory-LONEOS MPS 49658
2001 12 08.17416 02 50 26.81 +16 46 32.7   699 – Lowell Observatory-LONEOS MPS 49658
2001 12 08.20016 02 50 26.04 +16 46 27.3   699 – Lowell Observatory-LONEOS MPS 49658
2001 12 10.12581 02 49 38.12 +16 41 18.1 20.3 V 291 – LPL/Spacewatch II MPS 49658
2001 12 10.14869 02 49 37.54 +16 41 14.9 20.8 V 291 – LPL/Spacewatch II MPS 49658
2001 12 10.17362 02 49 36.85 +16 41 11.0 20.3 V 291 – LPL/Spacewatch II MPS 49658
2001 12 15.14624 02 48 07.16 +16 30 24.3 19.5   704 – Lincoln Laboratory ETS, New Mexico MPS 49658
2001 12 15.16133 02 48 06.89 +16 30 22.3 19.7   704 – Lincoln Laboratory ETS, New Mexico MPS 49658
2001 12 15.17720 02 48 06.66 +16 30 21.1 19.6   704 – Lincoln Laboratory ETS, New Mexico MPS 49658
2001 12 15.19618 02 48 06.41 +16 30 20.1 20.0   704 – Lincoln Laboratory ETS, New Mexico MPS 49658
2001 12 15.21128 02 48 06.09 +16 30 17.5 19.4   704 – Lincoln Laboratory ETS, New Mexico MPS 49658
2003 04 08.31450 12 57 42.42 -07 38 14.0 21.3 V 691 – Steward Observatory, Kitt Peak-Spacewatch MPS 143747
2003 04 08.34149 12 57 41.02 -07 38 05.3 21.3 V 691 – Steward Observatory, Kitt Peak-Spacewatch MPS 143747
2003 04 08.36880 12 57 39.54 -07 37 56.0 21.0 V 691 – Steward Observatory, Kitt Peak-Spacewatch MPS 143747
2005 09 26.241547 00 48 22.400 +07 01 31.60 19.48 V 645 – Apache Point-Sloan Digital Sky Survey MPS 390065
2005 09 26.245019 00 48 22.224 +07 01 30.56 20.10   645 – Apache Point-Sloan Digital Sky Survey MPS 390065
2005 09 29.27467 00 45 53.30 +06 45 32.6 19.1 R 699 – Lowell Observatory-LONEOS MPS 143747
2005 09 29.29752 00 45 52.34 +06 45 27.2   699 – Lowell Observatory-LONEOS MPS 143747
2005 09 29.32036 00 45 51.06 +06 45 19.3   699 – Lowell Observatory-LONEOS MPS 143747
2005 09 29.34317 00 45 49.74 +06 45 12.4   699 – Lowell Observatory-LONEOS MPS 143747
2005 10 01.30456 00 44 10.89 +06 34 26.0 19.3 V 703 – Catalina Sky Survey MPS 143747
2005 10 01.31104 00 44 10.50 +06 34 23.5 18.8 V 703 – Catalina Sky Survey MPS 143747
2005 10 01.31758 00 44 10.21 +06 34 21.3 19.1 V 703 – Catalina Sky Survey MPS 143747
2005 10 01.32410 00 44 09.88 +06 34 19.6 19.0 V 703 – Catalina Sky Survey MPS 143747
2005 10 02.43898 00 43 12.57 +06 28 03.6 19.3 V G96 – Mt. Lemmon Survey MPS 143747
2005 10 02.44349 00 43 12.32 +06 28 02.1 19.2 V G96 – Mt. Lemmon Survey MPS 143747
2005 10 02.44800 00 43 12.07 +06 28 00.9 19.2 V G96 – Mt. Lemmon Survey MPS 143747
2005 10 02.45249 00 43 11.85 +06 27 58.7 19.1 V G96 – Mt. Lemmon Survey MPS 143747
2005 10 05.22190 00 40 49.50 +06 12 10.0 19.7 V 691 – Steward Observatory, Kitt Peak-Spacewatch MPS 143747
2005 10 05.23927 00 40 48.57 +06 12 04.2 19.7 V 691 – Steward Observatory, Kitt Peak-Spacewatch MPS 143747
2005 10 05.25655 00 40 47.63 +06 11 58.5 19.8 V 691 – Steward Observatory, Kitt Peak-Spacewatch MPS 143747
2005 10 06.20172 00 39 58.77 +06 06 27.4 19.4 R 699 – Lowell Observatory-LONEOS MPS 143747
2005 10 06.22457 00 39 57.58 +06 06 21.2   699 – Lowell Observatory-LONEOS MPS 143747
2005 10 06.24737 00 39 56.36 +06 06 13.1   699 – Lowell Observatory-LONEOS MPS 143747
2005 10 06.27020 00 39 55.07 +06 06 05.2   699 – Lowell Observatory-LONEOS MPS 143747
2005 10 07.27707 00 39 02.98 +06 00 12.0 19.7 V 703 – Catalina Sky Survey MPS 143747
2005 10 07.28406 00 39 02.55 +06 00 11.1 19.6 V 703 – Catalina Sky Survey MPS 143747
2005 10 07.29109 00 39 02.26 +06 00 08.1 19.3 V 703 – Catalina Sky Survey MPS 143747
2005 10 07.29809 00 39 01.76 +06 00 05.0 19.3 V 703 – Catalina Sky Survey MPS 143747
2005 10 07.30749 00 39 01.33 +06 00 02.4 19.4 V 703 – Catalina Sky Survey MPS 143747
2005 10 07.31575 00 39 00.86 +06 00 00.3 19.2 V 703 – Catalina Sky Survey MPS 143747
2005 10 07.32399 00 39 00.43 +05 59 56.8 19.2 V 703 – Catalina Sky Survey MPS 143747
2005 10 07.33237 00 38 59.96 +05 59 53.8 19.4 V 703 – Catalina Sky Survey MPS 143747
2005 10 10.13284 00 36 36.33 +05 43 30.6 20.1 V 691 – Steward Observatory, Kitt Peak-Spacewatch MPS 143747
2005 10 10.15022 00 36 35.42 +05 43 24.6 19.8 V 691 – Steward Observatory, Kitt Peak-Spacewatch MPS 143747
2005 10 10.16764 00 36 34.50 +05 43 19.0 20.1 V 691 – Steward Observatory, Kitt Peak-Spacewatch MPS 143747
2005 10 10.18489 00 36 33.59 +05 43 12.6 20.0 V 691 – Steward Observatory, Kitt Peak-Spacewatch MPS 143747
2005 10 10.20213 00 36 32.70 +05 43 06.2 20.7 V 691 – Steward Observatory, Kitt Peak-Spacewatch MPS 143747
2005 10 10.21951 00 36 31.75 +05 43 00.6 20.1 V 691 – Steward Observatory, Kitt Peak-Spacewatch MPS 143747
2005 10 25.08749 00 25 10.97 +04 21 26.7 20.2 V 691 – Steward Observatory, Kitt Peak-Spacewatch MPS 145957
2005 10 25.10629 00 25 10.24 +04 21 21.4 20.3 V 691 – Steward Observatory, Kitt Peak-Spacewatch MPS 145957
2005 10 25.12512 00 25 09.47 +04 21 15.5 20.2 V 691 – Steward Observatory, Kitt Peak-Spacewatch MPS 145957
2005 10 27.23119 00 23 51.97 +04 11 22.0 19.9 V G96 – Mt. Lemmon Survey MPS 145957
2005 10 27.23866 00 23 51.68 +04 11 19.8 19.6 V G96 – Mt. Lemmon Survey MPS 145957
2005 10 27.24630 00 23 51.39 +04 11 17.8 19.6 V G96 – Mt. Lemmon Survey MPS 145957
2005 10 27.25395 00 23 51.14 +04 11 15.9 19.8 V G96 – Mt. Lemmon Survey MPS 145957
2005 11 03.20768 00 20 23.96 +03 43 17.5 20.5 V G96 – Mt. Lemmon Survey MPS 147361
2005 11 03.21440 00 20 23.78 +03 43 16.2 20.6 V G96 – Mt. Lemmon Survey MPS 147361
2005 11 03.22102 00 20 23.60 +03 43 14.8 20.6 V G96 – Mt. Lemmon Survey MPS 147361
2007 02 21.44508 12 02 37.13 -02 04 25.0 20.7 V 691 – Steward Observatory, Kitt Peak-Spacewatch MPS 200292
2007 02 21.46424 12 02 36.35 -02 04 20.5 20.8 V 691 – Steward Observatory, Kitt Peak-Spacewatch MPS 200292
2007 02 21.48340 12 02 35.53 -02 04 15.8 20.9 V 691 – Steward Observatory, Kitt Peak-Spacewatch MPS 200292
2007 03 10.35080 11 49 18.01 -00 40 31.1 20.2 V G96 – Mt. Lemmon Survey MPS 202928
